This is the latest recevied weather packets stored in our database for station/object KT1D-13. If no packets are shown the sender has not sent any weather packets the latest 10 day(s).
| Time | Temp. | Humidity | Pressure | Rain* | Wind** | Luminosity | Snow |
|---|---|---|---|---|---|---|---|
| 1778071518 | 17.22° C | 78% | 1009.4 hPa | 0 mm | - | 338 W/m² | - |
| 1778069720 | 16.67° C | 79% | 1009.4 hPa | 0 mm | - | 306 W/m² | - |
| 1778067320 | 16.11° C | 80% | 1010 hPa | 0 mm | - | 117 W/m² | - |
| 1778066121 | 16.11° C | 80% | 1009.7 hPa | 0 mm | - | 164 W/m² | - |
| 1778065539 | 16.11° C | 80% | 1009.8 hPa | 0 mm | - | 124 W/m² | - |
| 1778059538 | 16.11° C | 79% | 1009.7 hPa | 0 mm | - | 1 W/m² | - |
| 1778057718 | 16.11° C | 78% | 1009.8 hPa | 0 mm | - | 0 W/m² | - |
| 1778051140 | 17.22° C | 72% | 1009.3 hPa | 0 mm | - | 0 W/m² | - |
| 1778050520 | 17.78° C | 71% | 1009.3 hPa | 0 mm | - | 0 W/m² | - |
| 1778048120 | 17.78° C | 69% | 1009.2 hPa | 0 mm | - | 0 W/m² | - |
| 1778046917 | 18.33° C | 67% | 1009.2 hPa | 0 mm | - | 0 W/m² | - |
| 1778040322 | 17.78° C | 64% | 1009.6 hPa | 0 mm | - | 0 W/m² | - |
| 1778038519 | 18.33° C | 63% | 1009.5 hPa | 0 mm | - | 0 W/m² | - |
| 1778037342 | 18.33° C | 63% | 1009.4 hPa | 0 mm | - | 0 W/m² | - |
| 1778031318 | 19.44° C | 57% | 1009.2 hPa | 0 mm | - | 0 W/m² | - |
| 1778021117 | 22.78° C | 50% | 1006.6 hPa | 0 mm | - | 83 W/m² | - |
| 1778018117 | 22.78° C | 52% | 1006.5 hPa | 0 mm | - | 175 W/m² | - |
| 1778015738 | 23.89° C | 50% | 1006 hPa | 0 mm | - | 338 W/m² | - |
| 1778014518 | 24.44° C | 48% | 1005.9 hPa | 0 mm | - | 457 W/m² | - |
| 1778013319 | 25° C | 47% | 1005.8 hPa | 0 mm | - | 459 W/m² | - |
| 1778011519 | 25.56° C | 45% | 1005.7 hPa | 0 mm | - | 618 W/m² | - |
| 1778010320 | 25.56° C | 46% | 1005.7 hPa | 0 mm | - | 493 W/m² | - |
| 1778004318 | 26.67° C | 44% | 1006.9 hPa | 0 mm | - | 875 W/m² | - |
| 1778000719 | 25.56° C | 44% | 1007.8 hPa | 0 mm | - | 927 W/m² | - |
| 1777998319 | 23.89° C | 46% | 1008.6 hPa | 0 mm | - | 925 W/m² | - |
* Rain latest hour (hover to see other rain measurements)
** Current wind speed in m/s (hover to see current wind gust speed)